User: anonymous
Location: Ostrava
(49.8330°N, 18.2830°E)
Time: 11:26:52
(UTC+02:00)
Language:

NOAA 19 - Orbit

View from above orbital plane
View from above orbital plane
View from above satellite
View from above satellite

Ground track
Ground track

The orbit data is extracted from the following two-line orbital elements,

1 33591U 09005A   14234.47765164  .00000235  00000-0  15328-3 0  3513
2 33591 098.9490 179.3307 0012939 294.5035 173.5339 14.11749402285340
Epoch (UTC): 22 August 2014 11:27:49
Eccentricity: 0.0012939
inclination: 98.9490°
perigee height: 844 km
apogee height: 863 km
right ascension of ascending node: 179.3307°
argument of perigee: 294.5035°
revolutions per day: 14.11749402
mean anomaly at epoch: 173.5339°
orbit number at epoch: 28534

The dashed part of the orbit path shows where the satellite is in the earth's shadow,  

DLR